| time (UTC) | temp F | wind direction | speed MPH | gust MPH | rain 1hr in | rain 24hr in | rain mn in | humidity % | barometer mb |
| 20260508084542 | 30 | 0 | 0.0 | 0.0 | 0.00 | 0.00 | 0.00 | 91 | 1008.5 |
| 20260508083048 | 30 | 0 | 0.0 | 0.0 | 0.00 | 0.00 | 0.00 | 91 | 1008.5 |
| 20260508081609 | 30 | 0 | 0.0 | 0.0 | 0.00 | 0.00 | 0.00 | 91 | 1008.5 |
| 20260508080041 | 30 | 0 | 0.0 | 0.0 | 0.00 | 0.00 | 0.00 | 91 | 1008.4 |
| 20260508074541 | 30 | 0 | 0.0 | 0.0 | 0.00 | 0.01 | 0.00 | 90 | 1008.2 |
| 20260508073047 | 31 | 0 | 0.0 | 0.0 | 0.00 | 0.01 | 0.00 | 90 | 1007.9 |
| 20260508071549 | 31 | 0 | 0.0 | 0.0 | 0.00 | 0.01 | 0.00 | 89 | 1007.7 |
| 20260508070045 | 32 | 0 | 0.0 | 0.0 | 0.00 | 0.01 | 0.00 | 89 | 1007.8 |
| 20260508064542 | 32 | 0 | 0.0 | 0.0 | 0.00 | 0.01 | 0.00 | 89 | 1007.8 |
| 20260508063055 | 32 | 0 | 0.0 | 0.0 | 0.00 | 0.01 | 0.00 | 89 | 1007.9 |
| 20260508061552 | 33 | 0 | 0.0 | 0.0 | 0.00 | 0.01 | 0.00 | 89 | 1007.9 |
| 20260508060053 | 33 | 0 | 0.0 | 0.0 | 0.00 | 0.01 | 0.00 | 88 | 1007.9 |
| 20260508054543 | 33 | 0 | 0.0 | 0.0 | 0.00 | 0.01 | 0.00 | 87 | 1008.1 |
| 20260508053041 | 34 | 0 | 0.0 | 0.0 | 0.00 | 0.01 | 0.00 | 87 | 1008.1 |
| 20260508051542 | 35 | 0 | 0.0 | 0.0 | 0.00 | 0.01 | 0.00 | 86 | 1008.3 |
| 20260508050048 | 35 | 0 | 0.0 | 0.0 | 0.00 | 0.01 | 0.00 | 85 | 1008.5 |
| 20260508044547 | 36 | 0 | 0.0 | 0.0 | 0.00 | 0.01 | 0.00 | 84 | 1008.5 |
| 20260508043045 | 36 | 0 | 0.0 | 0.0 | 0.00 | 0.01 | 0.00 | 83 | 1008.5 |
| 20260508041541 | 37 | 0 | 0.0 | 0.0 | 0.00 | 0.01 | 0.00 | 81 | 1008.6 |
| 20260508040050 | 38 | 0 | 0.0 | 0.0 | 0.00 | 0.01 | 0.00 | 80 | 1008.8 |
| 20260508034548 | 38 | 0 | 0.0 | 0.0 | 0.00 | 0.01 | 0.01 | 79 | 1008.7 |
| 20260508033049 | 39 | 0 | 0.0 | 0.0 | 0.00 | 0.01 | 0.01 | 76 | 1008.6 |
| 20260508031546 | 40 | 0 | 0.0 | 0.0 | 0.00 | 0.01 | 0.01 | 74 | 1008.5 |
| 20260508030042 | 41 | 0 | 0.0 | 0.0 | 0.00 | 0.01 | 0.01 | 73 | 1008.4 |
| 20260508024548 | 42 | 0 | 0.0 | 0.0 | 0.00 | 0.02 | 0.01 | 71 | 1008.4 |
| 20260508023041 | 42 | 0 | 0.0 | 0.0 | 0.00 | 0.02 | 0.01 | 71 | 1008.4 |
| 20260508021553 | 42 | 0 | 0.0 | 0.0 | 0.00 | 0.02 | 0.01 | 71 | 1008.5 |
| 20260508020047 | 42 | 0 | 0.0 | 0.0 | 0.00 | 0.02 | 0.01 | 70 | 1008.3 |
| 20260508014550 | 43 | 0 | 0.0 | 0.0 | 0.00 | 0.03 | 0.01 | 68 | 1008.0 |
| 20260508013047 | 45 | 0 | 0.0 | 0.0 | 0.00 | 0.03 | 0.01 | 64 | 1007.8 |
| 20260508011542 | 45 | 0 | 0.0 | 0.0 | 0.00 | 0.03 | 0.01 | 62 | 1007.6 |
| 20260508010040 | 46 | 0 | 0.0 | 0.0 | 0.00 | 0.03 | 0.01 | 57 | 1007.4 |
| 20260508004548 | 47 | 0 | 0.0 | 0.0 | 0.00 | 0.03 | 0.01 | 53 | 1007.2 |
| 20260508003047 | 48 | 0 | 0.0 | 0.0 | 0.00 | 0.03 | 0.01 | 51 | 1007.2 |
| 20260508001546 | 50 | 0 | 0.0 | 0.0 | 0.00 | 0.03 | 0.01 | 48 | 1007.0 |
| 20260508000049 | 50 | 0 | 0.0 | 0.0 | 0.00 | 0.03 | 0.01 | 46 | 1006.9 |
| 20260507234541 | 51 | 0 | 0.0 | 1.0 | 0.00 | 0.03 | 0.01 | 44 | 1006.7 |
| 20260507233045 | 52 | 192 | 0.0 | 5.0 | 0.00 | 0.03 | 0.01 | 41 | 1006.5 |
| 20260507231553 | 53 | 136 | 1.0 | 6.0 | 0.00 | 0.03 | 0.01 | 40 | 1006.5 |
| 20260507230050 | 54 | 91 | 0.0 | 10.0 | 0.00 | 0.03 | 0.01 | 39 | 1006.5 |
| 20260507224550 | 54 | 73 | 3.0 | 12.0 | 0.00 | 0.03 | 0.01 | 38 | 1006.3 |
| 20260507223043 | 55 | 103 | 1.0 | 9.0 | 0.00 | 0.03 | 0.01 | 38 | 1006.2 |
| 20260507221541 | 56 | 178 | 1.0 | 8.0 | 0.00 | 0.03 | 0.01 | 35 | 1006.1 |
| 20260507220048 | 56 | 143 | 2.0 | 9.0 | 0.00 | 0.03 | 0.01 | 36 | 1006.1 |
| 20260507214600 | 58 | 0 | 1.0 | 6.0 | 0.00 | 0.03 | 0.01 | 35 | 1006.0 |
| 20260507213046 | 59 | 158 | 2.0 | 9.0 | 0.00 | 0.03 | 0.01 | 34 | 1005.9 |
| 20260507211549 | 58 | 66 | 3.0 | 10.0 | 0.00 | 0.03 | 0.01 | 33 | 1005.8 |
| 20260507210042 | 58 | 184 | 2.0 | 10.0 | 0.00 | 0.03 | 0.01 | 37 | 1005.9 |
| 20260507204540 | 58 | 150 | 4.0 | 11.0 | 0.00 | 0.04 | 0.01 | 33 | 1005.9 |
| 20260507203103 | 58 | 321 | 2.0 | 9.0 | 0.00 | 0.04 | 0.01 | 35 | 1005.8 |
| 20260507201556 | 58 | 151 | 5.0 | 11.0 | 0.00 | 0.04 | 0.01 | 34 | 1005.7 |
| 20260507194545 | 57 | 56 | 5.0 | 12.0 | 0.00 | 0.10 | 0.01 | 36 | 1006.0 |
| 20260507193047 | 57 | 113 | 2.0 | 11.0 | 0.00 | 0.10 | 0.01 | 35 | 1006.0 |
| 20260507191541 | 58 | 160 | 3.0 | 11.0 | 0.00 | 0.10 | 0.01 | 35 | 1006.2 |
| 20260507190054 | 58 | 104 | 1.0 | 12.0 | 0.00 | 0.10 | 0.01 | 35 | 1006.2 |
| 20260507184556 | 57 | 68 | 2.0 | 9.0 | 0.00 | 0.12 | 0.01 | 37 | 1006.5 |
| 20260507183048 | 58 | 166 | 3.0 | 11.0 | 0.00 | 0.12 | 0.01 | 35 | 1006.7 |
| 20260507181545 | 58 | 181 | 3.0 | 10.0 | 0.00 | 0.12 | 0.01 | 37 | 1006.7 |
| 20260507180048 | 57 | 146 | 4.0 | 11.0 | 0.00 | 0.12 | 0.01 | 36 | 1006.7 |
| 20260507174544 | 57 | 68 | 3.0 | 14.0 | 0.00 | 0.20 | 0.01 | 39 | 1006.8 |
| 20260507173049 | 57 | 114 | 4.0 | 14.0 | 0.00 | 0.20 | 0.01 | 36 | 1006.7 |
| 20260507171545 | 56 | 60 | 3.0 | 11.0 | 0.00 | 0.20 | 0.01 | 37 | 1006.7 |
| 20260507170048 | 57 | 32 | 3.0 | 10.0 | 0.00 | 0.20 | 0.01 | 35 | 1007.1 |
| 20260507164557 | 56 | 206 | 3.0 | 8.0 | 0.00 | 0.20 | 0.01 | 36 | 1007.3 |
| 20260507163043 | 55 | 143 | 4.0 | 12.0 | 0.00 | 0.20 | 0.01 | 42 | 1007.7 |
| 20260507161548 | 57 | 136 | 1.0 | 6.0 | 0.00 | 0.20 | 0.01 | 40 | 1007.5 |
| 20260507160049 | 55 | 162 | 2.0 | 12.0 | 0.00 | 0.20 | 0.01 | 42 | 1007.7 |
| 20260507154553 | 55 | 105 | 3.0 | 7.0 | 0.00 | 0.20 | 0.01 | 43 | 1007.8 |
| 20260507153046 | 55 | 137 | 4.0 | 9.0 | 0.00 | 0.20 | 0.01 | 41 | 1007.8 |
| 20260507151542 | 53 | 62 | 4.0 | 13.0 | 0.00 | 0.20 | 0.01 | 46 | 1007.9 |
| 20260507150041 | 53 | 158 | 2.0 | 11.0 | 0.00 | 0.20 | 0.01 | 49 | 1008.0 |
| 20260507144542 | 52 | 219 | 2.0 | 9.0 | 0.00 | 0.20 | 0.01 | 51 | 1008.0 |
| 20260507143057 | 51 | 184 | 2.0 | 6.0 | 0.00 | 0.20 | 0.01 | 60 | 1008.1 |
| 20260507141552 | 51 | 316 | 2.0 | 11.0 | 0.00 | 0.20 | 0.01 | 62 | 1008.1 |
| 20260507140046 | 50 | 174 | 2.0 | 7.0 | 0.00 | 0.20 | 0.01 | 70 | 1008.0 |
| 20260507134545 | 50 | 0 | 2.0 | 5.0 | 0.00 | 0.20 | 0.01 | 71 | 1007.9 |
| 20260507133059 | 50 | 0 | 0.0 | 4.0 | 0.00 | 0.20 | 0.01 | 71 | 1007.9 |
| 20260507131553 | 51 | 114 | 2.0 | 7.0 | 0.00 | 0.20 | 0.01 | 69 | 1008.0 |
| 20260507130104 | 50 | 141 | 2.0 | 9.0 | 0.00 | 0.20 | 0.01 | 71 | 1008.0 |
| 20260507124547 | 50 | 129 | 1.0 | 7.0 | 0.00 | 0.20 | 0.01 | 73 | 1008.2 |
| 20260507123045 | 49 | 198 | 2.0 | 8.0 | 0.00 | 0.20 | 0.01 | 74 | 1007.9 |
| 20260507121549 | 49 | 157 | 2.0 | 9.0 | 0.00 | 0.20 | 0.01 | 74 | 1007.9 |
| 20260507120052 | 49 | 138 | 0.0 | 4.0 | 0.00 | 0.20 | 0.01 | 76 | 1008.0 |
| 20260507114614 | 48 | 75 | 1.0 | 6.0 | 0.00 | 0.20 | 0.01 | 79 | 1007.9 |
| 20260507113047 | 47 | 0 | 1.0 | 4.0 | 0.00 | 0.20 | 0.01 | 81 | 1007.9 |
| 20260507111550 | 46 | 0 | 0.0 | 0.0 | 0.00 | 0.20 | 0.01 | 83 | 1007.7 |
| 20260507110046 | 45 | 0 | 0.0 | 0.0 | 0.00 | 0.20 | 0.01 | 85 | 1007.5 |
| 20260507104543 | 44 | 0 | 0.0 | 0.0 | 0.00 | 0.20 | 0.01 | 88 | 1007.5 |
| 20260507103041 | 44 | 0 | 0.0 | 0.0 | 0.00 | 0.20 | 0.01 | 89 | 1007.3 |
| 20260507101544 | 44 | 0 | 0.0 | 0.0 | 0.00 | 0.20 | 0.01 | 88 | 1007.3 |
| 20260507100048 | 45 | 0 | 0.0 | 0.0 | 0.00 | 0.20 | 0.01 | 87 | 1007.4 |
| 20260507094547 | 45 | 0 | 0.0 | 0.0 | 0.00 | 0.20 | 0.01 | 86 | 1007.2 |
| 20260507093048 | 45 | 0 | 0.0 | 1.0 | 0.00 | 0.20 | 0.01 | 86 | 1007.2 |
| 20260507091546 | 45 | 0 | 0.0 | 0.0 | 0.00 | 0.20 | 0.01 | 86 | 1007.6 |
| 20260507090042 | 45 | 0 | 0.0 | 0.0 | 0.00 | 0.20 | 0.01 | 85 | 1007.7 |